{"data":{"norad_id":43804,"epoch":"2026-09-18T02:41:23.557344Z","epoch_age_seconds":264651,"freshness":"STALE","line1":"1 43804U 18099AY  26261.11207821  .00008636  00000+0  29651-3 0  9993","line2":"2 43804  97.4086 321.2390 0008211 316.6515  43.4079 15.30348668427626","mean_motion":15.30348668,"eccentricity":0.0008211,"inclination_deg":97.4086,"raan_deg":321.239,"arg_perigee_deg":316.6515,"mean_anomaly_deg":43.4079,"bstar":0.00029651,"rev_number":42762,"period_min":94.096203702515,"perigee_km":469.14428657424,"apogee_km":480.39813243589,"semimajor_km":6852.9082095051,"source":"CELESTRAK","updated_at":"2026-09-20T09:00:14.408860Z"}}